STARLINK-2692, 48434

Orbit data source: Space-Track

STARLINK-2692, 48434 is a payload satellite owned by SpaceX/Seattle (US) in LEO that was launched on Sun, 09 May 2021 UTC via an FALCON 9 launch vehicle from the Air Force Eastern Test Range (AFETR). Payload-class satellites include a variety of spacecraft equipped with specific instruments for various scientific and technological missions. These include communications satellites like Starlink; space stations such as the ISS; scientific satellites like the Hubble; Earth observation satellites from companies like Planet Labs, Umbra, and HawkEye 360; GPS; miniature CubeSats for education and research; and military/defense satellites.

Loading next visibility...
Identifier
48434, 2021-040G
Orbit
LEO
Country
Flag of USUS
Related business
Manufacturer
SpaceX/Seattle
Mission
Operational Commercial Communications
Bus & Motor
STARLINK, Unknown motor
Mass
260 kg wet, ~248 kg dry
Launch date (UTC)
2021-05-09 (5 years ago)
Launch vehicle
FALCON 9
Launch site
Air Force Eastern Test Range (AFETR)
Object type
Payload
Rocket body
Debris
Shape & HBR
Box + 1 Pan, 10.1 m
Radar Cross Section
13.562 m², Large (>1 m²)

Expand to show TLE details & history
Last TLE update: 2 days ago

TLE from 2 days ago
0 STARLINK-2692
1 48434U 21040G   26171.32356403  .00004003  00000-0  14068-3 0  9992
2 48434  53.1618  35.3026 0001119  93.5562 266.5567 15.31698698282768
Epoch: 2026-06-20T07:45Z
TLE epoch observation values (Epoch: 2026-06-20T07:45:55.932Z)
Latitude
-0.00004°
Longitude
10.27969°
Altitude
471.69 km
Speed
7.631 km/s
True Right ascension
02h 21m 12s
True Declination
0° 00' 00"
Sunlit
Object was in daylight at epoch
Visualization orbit readout
Latitude
Unknown
Longitude
Unknown
Altitude
Unknown
Speed
Unknown
Apparent Right ascension
Unknown
Apparent Declination
Unknown
Sunlit
N/A
Visualization observer readout
Local Sidereal Time
21:24:17
Azimuth
Unknown
Elevation
Unknown
Doppler factor
Unknown
Orbital elements
Apogee altitude
471.767 km
Perigee altitude
470.234 km
Semi-major axis
6,849.137 km
Eccentricity
0.00011
Inclination
53.1618°
RAAN
35.3026°
Arg. of periapsis
93.5562°
True anomaly
266.5439°
Mean anomaly
266.5567°
Eccentric anomaly
266.5503°
Mean motion
3.82904 °/min
Orbital period
94.02 mins
BSTAR
0.00014068
Loading maneuver chart data...
Computing Atmospheric mass density...

Documentation

Showing up to 5 results
|